When you browse on this site, cookies collect data to enhance your experience and personalize the content and advertising you see.
Visit our Privacy Policy to learn more. By continuing to use the site, you agree to this use of cookies and data.

Previsão horária em Abadan

Hoje, 28 Setembro, Segunda-feira

Tempo Temperatura Precipitação Vento Pressão Humidade
00:00 +35°C° 0 mm 7 m/s 753 mmHg 20%
01:00 +34°C° 0 mm 7 m/s 753 mmHg 21%
02:00 +33°C° 0 mm 7 m/s 753 mmHg 23%
03:00 +33°C° 0 mm 7 m/s 752 mmHg 23%
04:00 +32°C° 0 mm 6 m/s 753 mmHg 24%
05:00 +32°C° 0 mm 6 m/s 753 mmHg 25%
06:00 +30°C° 0 mm 5 m/s 754 mmHg 26%
07:00 +33°C° 0 mm 6 m/s 754 mmHg 24%
08:00 +35°C° 0 mm 6 m/s 754 mmHg 21%
09:00 +39°C° 0 mm 6 m/s 754 mmHg 19%
10:00 +40°C° 0 mm 6 m/s 754 mmHg 17%
11:00 +42°C° 0 mm 5 m/s 753 mmHg 14%
12:00 +45°C° 0 mm 5 m/s 753 mmHg 12%
13:00 +46°C° 0 mm 5 m/s 753 mmHg 11%
14:00 +45°C° 0 mm 4 m/s 752 mmHg 10%
15:00 +45°C° 0 mm 4 m/s 751 mmHg 10%
16:00 +43°C° 0 mm 4 m/s 752 mmHg 11%
17:00 +40°C° 0 mm 3 m/s 752 mmHg 12%
18:00 +38°C° 0 mm 3 m/s 752 mmHg 13%
19:00 +37°C° 0 mm 4 m/s 752 mmHg 13%
20:00 +37°C° 0 mm 4 m/s 752 mmHg 14%
21:00 +36°C° 0 mm 5 m/s 752 mmHg 14%
22:00 +35°C° 0 mm 4 m/s 752 mmHg 16%
23:00 +34°C° 0 mm 4 m/s 752 mmHg 17%

Amanhã, 29 Setembro, Terça-feira

Tempo Temperatura Precipitação Vento Pressão Humidade
00:00 +33°C° 0 mm 4 m/s 752 mmHg 18%
01:00 +31°C° 0 mm 3 m/s 752 mmHg 19%
02:00 +30°C° 0 mm 3 m/s 751 mmHg 21%
03:00 +29°C° 0 mm 2 m/s 751 mmHg 23%
04:00 +29°C° 0 mm 3 m/s 751 mmHg 23%
05:00 +29°C° 0 mm 3 m/s 752 mmHg 24%
06:00 +29°C° 0 mm 3 m/s 752 mmHg 25%
07:00 +31°C° 0 mm 3 m/s 752 mmHg 22%
08:00 +35°C° 0 mm 2 m/s 752 mmHg 19%
09:00 +38°C° 0 mm 2 m/s 753 mmHg 15%
10:00 +39°C° 0 mm 2 m/s 752 mmHg 14%
11:00 +41°C° 0 mm 1 m/s 752 mmHg 12%
12:00 +43°C° 0 mm 1 m/s 752 mmHg 10%
13:00 +43°C° 0 mm 2 m/s 752 mmHg 11%
14:00 +44°C° 0 mm 3 m/s 751 mmHg 11%
15:00 +44°C° 0 mm 4 m/s 750 mmHg 11%
16:00 +41°C° 0 mm 4 m/s 750 mmHg 19%
17:00 +37°C° 0 mm 5 m/s 750 mmHg 27%
18:00 +34°C° 0 mm 5 m/s 750 mmHg 35%
19:00 +34°C° 0 mm 5 m/s 751 mmHg 40%
20:00 +33°C° 0 mm 5 m/s 751 mmHg 45%
21:00 +32°C° 0 mm 4 m/s 751 mmHg 50%
22:00 +32°C° 0 mm 5 m/s 751 mmHg 54%
23:00 +30°C° 0 mm 5 m/s 751 mmHg 57%

Depois de amanhã, 30 Setembro, Quarta-feira

Tempo Temperatura Precipitação Vento Pressão Humidade
00:00 +30°C° 0 mm 5 m/s 751 mmHg 61%
01:00 +30°C° 0 mm 4 m/s 751 mmHg 62%
02:00 +29°C° 0 mm 4 m/s 751 mmHg 64%
03:00 +29°C° 0 mm 3 m/s 751 mmHg 65%
04:00 +29°C° 0 mm 3 m/s 751 mmHg 67%
05:00 +29°C° 0 mm 3 m/s 751 mmHg 69%
06:00 +29°C° 0 mm 3 m/s 752 mmHg 70%
07:00 +33°C° 0 mm 4 m/s 752 mmHg 58%
08:00 +35°C° 0 mm 5 m/s 752 mmHg 46%
09:00 +39°C° 0 mm 6 m/s 753 mmHg 33%
10:00 +40°C° 0 mm 6 m/s 752 mmHg 32%
11:00 +41°C° 0 mm 7 m/s 752 mmHg 30%
12:00 +43°C° 0 mm 7 m/s 752 mmHg 29%
13:00 +41°C° 0 mm 7 m/s 751 mmHg 29%
14:00 +41°C° 0 mm 6 m/s 751 mmHg 30%
15:00 +41°C° 0 mm 6 m/s 751 mmHg 31%
16:00 +39°C° 0 mm 5 m/s 751 mmHg 35%
17:00 +36°C° 0 mm 5 m/s 751 mmHg 39%
18:00 +34°C° 0 mm 4 m/s 751 mmHg 43%
19:00 +33°C° 0 mm 4 m/s 752 mmHg 49%
20:00 +32°C° 0 mm 4 m/s 752 mmHg 56%
21:00 +30°C° 0 mm 4 m/s 753 mmHg 62%
22:00 +30°C° 0 mm 3 m/s 753 mmHg 69%
23:00 +30°C° 0 mm 3 m/s 753 mmHg 76%

1 Outubro, Quinta-feira

Tempo Temperatura Precipitação Vento Pressão Humidade
00:00 +30°C° 0 mm 2 m/s 753 mmHg 83%
01:00 +30°C° 0 mm 2 m/s 753 mmHg 85%
02:00 +30°C° 0 mm 2 m/s 753 mmHg 87%
03:00 +30°C° 0 mm 2 m/s 752 mmHg 89%
04:00 +30°C° 0 mm 2 m/s 753 mmHg 89%
05:00 +30°C° 0 mm 2 m/s 753 mmHg 89%
06:00 +30°C° 0 mm 2 m/s 754 mmHg 89%
07:00 +32°C° 0 mm 2 m/s 754 mmHg 76%
08:00 +35°C° 0 mm 3 m/s 755 mmHg 62%
09:00 +37°C° 0 mm 4 m/s 755 mmHg 49%
10:00 +40°C° 0 mm 4 m/s 755 mmHg 42%
11:00 +41°C° 0 mm 5 m/s 755 mmHg 35%
12:00 +44°C° 0 mm 6 m/s 754 mmHg 28%
13:00 +42°C° 0 mm 6 m/s 754 mmHg 28%
14:00 +42°C° 0 mm 6 m/s 753 mmHg 29%
15:00 +42°C° 0 mm 6 m/s 753 mmHg 29%
16:00 +40°C° 0 mm 5 m/s 753 mmHg 35%
17:00 +37°C° 0 mm 5 m/s 754 mmHg 41%
18:00 +35°C° 0 mm 4 m/s 754 mmHg 47%
19:00 +34°C° 0 mm 4 m/s 754 mmHg 54%
20:00 +33°C° 0 mm 4 m/s 755 mmHg 62%
21:00 +32°C° 0 mm 4 m/s 755 mmHg 69%
22:00 +30°C° 0 mm 3 m/s 755 mmHg 73%
23:00 +30°C° 0 mm 2 m/s 755 mmHg 77%

2 Outubro, Sexta-feira

Tempo Temperatura Precipitação Vento Pressão Humidade
00:00 +29°C° 0 mm 2 m/s 755 mmHg 81%
01:00 +29°C° 0 mm 2 m/s 755 mmHg 82%
02:00 +29°C° 0 mm 2 m/s 755 mmHg 82%
03:00 +28°C° 0 mm 2 m/s 755 mmHg 83%
04:00 +28°C° 0 mm 2 m/s 755 mmHg 85%
05:00 +28°C° 0 mm 1 m/s 755 mmHg 86%
06:00 +28°C° 0 mm 1 m/s 756 mmHg 88%
07:00 +31°C° 0 mm 1 m/s 756 mmHg 74%
08:00 +33°C° 0 mm 1 m/s 757 mmHg 60%
09:00 +36°C° 0 mm 1 m/s 757 mmHg 46%
10:00 +37°C° 0 mm 1 m/s 757 mmHg 38%
11:00 +40°C° 0 mm 1 m/s 757 mmHg 30%
12:00 +42°C° 0 mm 1 m/s 756 mmHg 22%
13:00 +42°C° 0 mm 2 m/s 756 mmHg 20%
14:00 +42°C° 0 mm 2 m/s 755 mmHg 18%
15:00 +42°C° 0 mm 2 m/s 755 mmHg 16%
16:00 +40°C° 0 mm 3 m/s 755 mmHg 23%
17:00 +38°C° 0 mm 3 m/s 755 mmHg 30%
18:00 +36°C° 0 mm 3 m/s 755 mmHg 37%
19:00 +35°C° 0 mm 3 m/s 755 mmHg 38%
20:00 +34°C° 0 mm 2 m/s 755 mmHg 40%
21:00 +31°C° 0 mm 1 m/s 756 mmHg 42%
22:00 +32°C° 0 mm 2 m/s 755 mmHg 41%
23:00 +32°C° 0 mm 2 m/s 755 mmHg 40%

3 Outubro, Sábado

Tempo Temperatura Precipitação Vento Pressão Humidade
00:00 +33°C° 0 mm 3 m/s 755 mmHg 40%
01:00 +31°C° 0 mm 3 m/s 755 mmHg 41%
02:00 +31°C° 0 mm 2 m/s 755 mmHg 41%
03:00 +30°C° 0 mm 2 m/s 755 mmHg 42%
04:00 +30°C° 0 mm 2 m/s 755 mmHg 43%
05:00 +29°C° 0 mm 1 m/s 755 mmHg 43%
06:00 +29°C° 0 mm 1 m/s 755 mmHg 44%
07:00 +32°C° 0 mm 1 m/s 756 mmHg 37%
08:00 +35°C° 0 mm 1 m/s 756 mmHg 29%
09:00 +40°C° 0 mm 1 m/s 756 mmHg 22%
10:00 +41°C° 0 mm 1 m/s 756 mmHg 19%
11:00 +42°C° 0 mm 2 m/s 755 mmHg 15%
12:00 +45°C° 0 mm 2 m/s 755 mmHg 12%
13:00 +45°C° 0 mm 2 m/s 754 mmHg 11%
14:00 +45°C° 0 mm 2 m/s 754 mmHg 11%
15:00 +45°C° 0 mm 3 m/s 753 mmHg 10%
16:00 +42°C° 0 mm 2 m/s 753 mmHg 12%
17:00 +40°C° 0 mm 2 m/s 753 mmHg 14%
18:00 +37°C° 0 mm 2 m/s 753 mmHg 16%
19:00 +36°C° 0 mm 2 m/s 753 mmHg 17%
20:00 +35°C° 0 mm 2 m/s 754 mmHg 18%
21:00 +34°C° 0 mm 3 m/s 754 mmHg 20%
22:00 +34°C° 0 mm 2 m/s 754 mmHg 19%
23:00 +32°C° 0 mm 2 m/s 754 mmHg 19%
Mostrar mais